Time,TemperatureF,DewpointF,PressureIn,WindDirection,WindDirectionDegrees,WindSpeedMPH,WindSpeedGustMPH,Humidity,HourlyPrecipIn,Conditions,Clouds,dailyrainin,SoftwareType,DateUTC
2013-03-15 00:00:00,30.0,28.7,30.28,WNW,292,0.0,0.0,95,0.00,,,-99.99,Weather View 32 v60,2013-03-15 05:00:00,
2013-03-15 00:30:00,29.0,27.7,30.29,WNW,292,0.0,0.0,95,0.00,,,-99.99,Weather View 32 v60,2013-03-15 05:30:00,
2013-03-15 01:00:00,29.0,28.0,30.28,West,270,0.0,0.0,96,0.00,,,-99.99,Weather View 32 v60,2013-03-15 06:00:00,
2013-03-15 01:30:00,29.0,28.0,30.27,NW,315,0.0,0.0,96,0.00,,,-99.99,Weather View 32 v60,2013-03-15 06:30:00,
2013-03-15 02:00:00,29.0,28.3,30.27,West,270,0.0,0.0,97,0.00,,,-99.99,Weather View 32 v60,2013-03-15 07:00:00,
2013-03-15 02:30:00,29.0,28.3,30.25,NNW,338,0.0,0.0,97,0.00,,,-99.99,Weather View 32 v60,2013-03-15 07:30:00,
2013-03-15 03:00:00,28.0,27.3,30.24,West,270,0.0,0.0,97,0.00,,,-99.99,Weather View 32 v60,2013-03-15 08:00:00,
2013-03-15 03:30:00,28.0,27.3,30.23,WSW,248,0.0,0.0,97,0.00,,,-99.99,Weather View 32 v60,2013-03-15 08:30:00,
2013-03-15 04:00:00,29.0,28.5,30.23,WNW,292,0.0,0.0,98,0.00,,,-99.99,Weather View 32 v60,2013-03-15 09:00:00,
2013-03-15 04:30:00,29.0,28.5,30.22,West,270,0.0,0.0,98,0.00,,,-99.99,Weather View 32 v60,2013-03-15 09:30:00,
2013-03-15 05:00:00,29.0,28.5,30.22,NE,45,0.0,0.0,98,0.00,,,-99.99,Weather View 32 v60,2013-03-15 10:00:00,
2013-03-15 05:30:00,28.0,27.5,30.21,North,0,0.0,0.0,98,0.00,,,-99.99,Weather View 32 v60,2013-03-15 10:30:00,
2013-03-15 06:00:00,29.0,28.8,30.21,NNW,338,0.0,0.0,99,0.00,,,-99.99,Weather View 32 v60,2013-03-15 11:00:00,
2013-03-15 06:30:00,29.0,28.8,30.21,WNW,292,0.0,0.0,99,0.00,,,-99.99,Weather View 32 v60,2013-03-15 11:30:00,
2013-03-15 07:00:00,29.0,28.8,30.21,SSW,202,0.0,0.0,99,0.00,,,-99.99,Weather View 32 v60,2013-03-15 12:00:00,
2013-03-15 07:30:00,30.0,29.8,30.22,NNW,338,0.0,0.0,99,0.00,,,-99.99,Weather View 32 v60,2013-03-15 12:30:00,
2013-03-15 08:00:00,30.0,29.8,30.21,NE,45,0.0,0.0,99,0.00,,,-99.99,Weather View 32 v60,2013-03-15 13:00:00,
2013-03-15 08:30:00,31.0,30.5,30.21,NE,45,0.0,0.0,98,0.00,,,-99.99,Weather View 32 v60,2013-03-15 13:30:00,
2013-03-15 09:00:00,33.0,32.2,30.20,ENE,68,0.0,4.0,97,0.00,,,-99.99,Weather View 32 v60,2013-03-15 14:00:00,
2013-03-15 09:30:00,33.0,31.7,30.20,ENE,68,0.0,4.0,95,0.00,,,-99.99,Weather View 32 v60,2013-03-15 14:30:00,
2013-03-15 10:00:00,34.0,32.7,30.20,ENE,68,0.0,1.0,95,0.00,,,-99.99,Weather View 32 v60,2013-03-15 15:00:00,
2013-03-15 10:30:00,34.0,32.7,30.19,ESE,112,0.0,1.0,95,0.00,,,-99.99,Weather View 32 v60,2013-03-15 15:30:00,
2013-03-15 11:00:00,34.0,32.7,30.22,ESE,112,0.0,1.0,95,0.00,,,-99.99,Weather View 32 v60,2013-03-15 16:00:00,
2013-03-15 11:30:00,34.0,32.7,30.22,SE,135,0.0,1.0,95,0.00,,,-99.99,Weather View 32 v60,2013-03-15 16:30:00,
2013-03-15 12:00:00,35.0,34.0,30.23,SE,135,0.0,6.0,96,0.00,,,-99.99,Weather View 32 v60,2013-03-15 17:00:00,
2013-03-15 12:30:00,35.0,34.0,30.23,SSE,158,0.0,6.0,96,0.00,,,-99.99,Weather View 32 v60,2013-03-15 17:30:00,
2013-03-15 13:00:00,35.0,34.0,30.23,SSW,202,0.0,1.0,96,0.00,,,-99.99,Weather View 32 v60,2013-03-15 18:00:00,
2013-03-15 13:30:00,35.0,34.0,30.23,SW,225,0.0,0.0,96,0.00,,,-99.99,Weather View 32 v60,2013-03-15 18:30:00,
2013-03-15 14:00:00,35.0,34.0,30.22,South,180,0.0,0.0,96,0.00,,,-99.99,Weather View 32 v60,2013-03-15 19:00:00,
2013-03-15 14:30:00,35.0,34.2,30.20,SSE,158,0.0,0.0,97,0.00,,,-99.99,Weather View 32 v60,2013-03-15 19:30:00,
2013-03-15 15:00:00,35.0,34.2,30.19,SW,225,0.0,0.0,97,0.00,,,-99.99,Weather View 32 v60,2013-03-15 20:00:00,
2013-03-15 15:30:00,35.0,34.0,30.18,SSE,158,0.0,7.0,96,0.00,,,-99.99,Weather View 32 v60,2013-03-15 20:30:00,
2013-03-15 16:00:00,35.0,34.2,30.17,SW,225,0.0,7.0,97,0.00,,,-99.99,Weather View 32 v60,2013-03-15 21:00:00,
2013-03-15 16:30:00,34.0,33.2,30.18,SE,135,0.0,6.0,97,0.00,,,-99.99,Weather View 32 v60,2013-03-15 21:30:00,
2013-03-15 17:00:00,34.0,33.2,30.18,ESE,112,0.0,3.0,97,0.00,,,-99.99,Weather View 32 v60,2013-03-15 22:00:00,
2013-03-15 17:30:00,34.0,33.2,30.18,ESE,112,0.0,1.0,97,0.00,,,-99.99,Weather View 32 v60,2013-03-15 22:30:00,
2013-03-15 18:00:00,34.0,33.5,30.19,SE,135,0.0,10.0,98,0.00,,,-99.99,Weather View 32 v60,2013-03-15 23:00:00,
2013-03-15 18:30:00,33.0,32.2,30.19,SSE,158,0.0,11.0,97,0.00,,,-99.99,Weather View 32 v60,2013-03-15 23:30:00,
2013-03-15 19:00:00,32.0,31.2,30.20,SSW,202,0.0,11.0,97,0.00,,,-99.99,Weather View 32 v60,2013-03-16 00:00:00,
2013-03-15 19:30:00,32.0,31.2,30.19,South,180,0.0,12.0,97,0.00,,,-99.99,Weather View 32 v60,2013-03-16 00:30:00,
2013-03-15 20:00:00,31.0,30.2,30.19,South,180,0.0,12.0,97,0.00,,,-99.99,Weather View 32 v60,2013-03-16 01:00:00,
2013-03-15 20:30:00,31.0,30.2,30.19,SE,135,0.0,11.0,97,0.00,,,-99.99,Weather View 32 v60,2013-03-16 01:30:00,
2013-03-15 21:00:00,31.0,30.2,30.20,South,180,0.0,12.0,97,0.00,,,-99.99,Weather View 32 v60,2013-03-16 02:00:00,
2013-03-15 21:30:00,30.0,29.3,30.20,SSE,158,0.0,12.0,97,0.00,,,-99.99,Weather View 32 v60,2013-03-16 02:30:00,
2013-03-15 22:00:00,29.0,28.5,30.18,SSE,158,0.0,8.0,98,0.00,,,-99.99,Weather View 32 v60,2013-03-16 03:00:00,
2013-03-15 22:30:00,28.0,27.5,30.20,SSE,158,0.0,13.0,98,0.01,,,-99.99,Weather View 32 v60,2013-03-16 03:30:00,
2013-03-15 23:00:00,28.0,27.5,30.21,ESE,112,0.0,13.0,98,0.01,,,-99.99,Weather View 32 v60,2013-03-16 04:00:00,
2013-03-15 23:30:00,27.0,26.5,30.19,SSE,158,0.0,12.0,98,0.01,,,-99.99,Weather View 32 v60,2013-03-16 04:30:00,